JF1AJE-13 Weather Reports


time (UTC)temp
C
wind
direction
speed
KPH
gust
KPH
rain 1hr
cm
rain 24hr
cm
rain mn
cm
humidity
%
barometer
mb
20260504184552 12 111 0.0 0.0 0.00 0.00 0.00 36 1010.4
20260504182551 12 314 0.0 0.0 0.00 0.00 0.00 40 1009.9
20260504180552 12 309 0.0 0.0 0.00 0.00 0.00 41 1009.3
20260504174553 12 330 0.0 0.0 0.00 0.00 0.00 41 1008.6
20260504172551 12 313 0.0 0.0 0.00 0.00 0.00 43 1008.0
20260504170552 12 346 0.0 0.0 0.00 0.00 0.00 44 1007.5
20260504150550 14 337 0.0 0.0 0.00 0.00 0.00 45 1004.5
20260504140551 15 34 0.0 0.0 0.00 0.28 0.28 47 1003.1
20260504110551 18 350 0.0 0.0 0.00 0.28 0.28 40 997.4
20260504100552 22 19 0.0 0.0 0.00 0.28 0.28 27 994.9
20260504050553 31 316 0.0 27.4 0.00 0.28 0.28 31 988.8
20260504044552 31 77 6.4 27.4 0.00 0.28 0.28 32 988.9
20260504042552 29 135 3.2 25.7 0.00 0.28 0.28 35 989.3
20260504040552 28 114 17.7 25.7 0.00 0.28 0.28 37 989.5
20260504034551 29 110 1.6 22.5 0.00 0.28 0.28 36 989.8
20260504032552 28 206 4.8 19.3 0.00 0.28 0.28 41 990.0
20260504030552 28 178 8.0 19.3 0.00 0.28 0.28 44 990.5
20260504024552 28 120 9.7 12.9 0.00 0.28 0.28 43 990.5
20260504022552 28 187 8.0 9.7 0.00 0.28 0.28 45 990.9
20260504020553 27 50 1.6 9.7 0.00 0.28 0.28 50 991.0
20260504014553 26 274 1.6 1.6 0.00 0.28 0.28 54 991.5
20260504012552 25 21 0.0 1.6 0.00 0.28 0.28 56 991.9
20260504010550 23 10 0.0 1.6 0.00 0.28 0.28 58 992.1
20260504004552 23 65 0.0 0.0 0.00 0.28 0.28 61 992.4
20260504002552 22 59 0.0 0.0 0.00 0.28 0.28 62 992.6
20260504000553 21 336 0.0 0.0 0.00 0.28 0.28 66 992.6
20260503234551 20 49 0.0 0.0 0.00 0.28 0.28 69 992.6
20260503232551 19 63 0.0 0.0 0.00 0.28 0.28 74 992.7
20260503230553 18 18 0.0 0.0 0.00 0.28 0.28 78 992.5
20260503224557 18 10 0.0 0.0 0.00 0.28 0.28 83 992.6
20260503222551 17 21 0.0 0.0 0.00 0.28 0.28 86 992.4
20260503220553 16 330 0.0 0.0 0.00 0.28 0.28 88 992.5
20260503214552 16 331 0.0 0.0 0.00 0.28 0.28 89 992.3
20260503212550 16 353 0.0 0.0 0.03 0.28 0.28 89 991.6
20260503210552 16 313 0.0 0.0 0.03 0.28 0.28 89 991.6
20260503204553 20 316 0.0 0.0 0.15 0.28 0.28 89 991.5
20260503202551 20 91 0.0 0.0 0.23 0.25 0.25 90 991.4
20260503200551 18 128 0.0 0.0 0.23 0.25 0.25 89 991.9
20260503194552 18 138 0.0 0.0 0.10 0.13 0.13 89 992.3
20260503192551 18 138 0.0 17.7 0.05 0.05 0.05 88 992.7
20260503190550 18 137 0.0 17.7 0.05 0.05 0.05 87 992.9